Date String (YYYY-MM-DD hh:mm:ss) UTC,Instrument flags,Ambient pressure (hPa),Sample flow (lpm),Bypass flow (lpm),Sample temperature (°C),Ambient temperature (°C),ASC tube jacket temperature (°C),LED temperature (°C),Box temperature (°C),Sample RH (%),Span deviation,Mass concentration (μg/m³),Mass concentration (μg/m³),Mass concentration (μg/m³)
DateTimeUTC,F1_M11,P_M11,Q1_M11,Q2_M11,T1_M11,T2_M11,T3_M11,T4_M11,T5_M11,U1_M11,ZSPAN_M11,X0_M11,X2_M11,X1_M11
2022-11-11 00:00:00,,0824.4,4.98,0.00,23.2,21.8,00.0,32.0,25.1,11.6,-002.1,0021.02,0007.29,0005.80
2022-11-11 00:01:00,,0824.4,5.01,0.00,23.2,21.8,00.0,32.0,25.1,11.6,-002.2,0020.01,0007.27,0005.81
2022-11-11 00:02:00,,0824.5,5.00,0.00,23.2,21.8,00.0,32.0,25.1,11.5,-001.9,0019.14,0007.24,0005.83
2022-11-11 00:03:00,,0824.5,4.99,0.00,23.2,21.8,00.0,32.0,25.1,11.5,-001.9,0018.99,0007.21,0005.84
2022-11-11 00:04:00,,0824.6,5.01,0.00,23.3,21.9,00.0,32.0,25.1,11.5,-002.1,0018.70,0007.21,0005.85
2022-11-11 00:05:00,,0824.6,5.00,0.00,23.3,21.9,00.0,32.0,25.1,11.5,-002.2,0018.00,0007.16,0005.86
2022-11-11 00:06:00,,0824.6,4.99,0.00,23.3,21.9,00.0,32.0,25.1,11.5,-002.1,0016.96,0007.16,0005.87
2022-11-11 00:07:00,,0824.7,5.00,0.00,23.3,21.9,00.0,32.0,25.1,11.5,-002.0,0017.02,0007.20,0005.87
2022-11-11 00:08:00,,0824.7,5.01,0.00,23.3,21.9,00.0,32.0,25.1,11.5,-001.8,0016.78,0007.25,0005.87
2022-11-11 00:09:00,,0824.8,5.00,0.00,23.3,21.9,00.0,32.0,25.1,11.4,-001.7,0016.73,0007.28,0005.86
2022-11-11 00:10:00,,0824.8,5.01,0.00,23.3,21.9,00.0,32.0,25.1,11.4,-001.1,0016.81,0007.30,0005.85
2022-11-11 00:11:00,,0824.8,4.98,0.00,23.3,21.9,00.0,32.0,25.1,11.4,-000.7,0017.43,0007.23,0005.82
2022-11-11 00:12:00,,0824.8,5.00,0.00,23.3,21.9,00.0,32.0,25.1,11.4,0000.1,0017.82,0007.23,0005.81
2022-11-11 00:13:00,,0824.8,5.00,0.00,23.3,21.9,00.0,32.0,25.2,11.3,-000.1,0018.60,0007.23,0005.80
2022-11-11 00:14:00,,0824.8,5.00,0.00,23.3,21.9,00.0,32.0,25.2,11.3,0000.8,0019.51,0007.23,0005.79
2022-11-11 00:15:00,,0824.8,5.00,0.00,23.3,21.9,00.0,32.0,25.2,11.3,0001.4,0019.67,0007.15,0005.77
2022-11-11 00:16:00,,0824.8,4.99,0.00,23.3,21.9,00.0,32.0,25.2,11.3,0001.1,0019.61,0007.12,0005.75
2022-11-11 00:17:00,,0824.7,4.99,0.00,23.3,21.9,00.0,32.0,25.2,11.3,0001.1,0019.69,0007.15,0005.76
2022-11-11 00:18:00,,0824.8,5.00,0.00,23.3,21.9,00.0,32.0,25.2,11.3,0000.5,0018.90,0007.09,0005.76
2022-11-11 00:19:00,,0824.8,5.01,0.00,23.3,21.9,00.0,32.0,25.2,11.2,0001.0,0018.69,0007.04,0005.76
2022-11-11 00:20:00,,0824.8,4.99,0.00,23.3,21.9,00.0,32.0,25.2,11.2,0001.3,0018.36,0006.97,0005.77
2022-11-11 00:21:00,,0824.8,5.01,0.00,23.3,21.9,00.0,32.0,25.2,11.2,0001.2,0017.66,0006.93,0005.78
2022-11-11 00:22:00,,0824.9,4.99,0.00,23.3,21.9,00.0,32.0,25.2,11.1,0001.3,0016.58,0006.90,0005.81
2022-11-11 00:23:00,,0824.9,5.01,0.00,23.3,21.9,00.0,32.0,25.2,11.1,0001.6,0015.81,0006.84,0005.82
2022-11-11 00:24:00,,0824.9,5.01,0.00,23.3,21.9,00.0,32.0,25.2,11.1,0001.5,0016.21,0006.84,0005.83
2022-11-11 00:25:00,,0824.8,4.99,0.00,23.3,21.9,00.0,32.1,25.2,11.1,0001.4,0015.40,0006.81,0005.83
2022-11-11 00:26:00,,0824.8,5.00,0.00,23.3,21.9,00.0,32.1,25.2,11.1,0000.8,0014.91,0006.78,0005.83
2022-11-11 00:27:00,,0824.8,4.99,0.00,23.3,21.9,00.0,32.1,25.2,11.1,0000.8,0014.95,0006.73,0005.82
2022-11-11 00:28:00,,0824.8,5.00,0.00,23.3,21.9,00.0,32.1,25.2,11.1,0000.4,0015.50,0006.72,0005.80
2022-11-11 00:29:00,,0824.9,5.00,0.00,23.3,21.9,00.0,32.1,25.2,11.1,0000.3,0016.33,0006.69,0005.78
2022-11-11 00:30:00,,0824.8,5.00,0.00,23.4,21.9,00.0,32.1,25.2,11.1,0000.1,0016.49,0006.69,0005.78
2022-11-11 00:31:00,,0824.9,5.00,0.00,23.4,21.8,00.0,32.1,25.2,11.1,-000.6,0016.49,0006.73,0005.79
2022-11-11 00:32:00,,0824.9,5.00,0.00,23.4,21.8,00.0,32.1,25.2,11.1,-000.9,0016.96,0006.71,0005.78
2022-11-11 00:33:00,,0824.9,5.00,0.00,23.4,21.8,00.0,32.1,25.2,11.0,-001.0,0017.97,0006.72,0005.78
2022-11-11 00:34:00,,0825.0,5.00,0.00,23.4,21.8,00.0,32.1,25.2,11.0,-001.1,0018.49,0006.80,0005.78
2022-11-11 00:35:00,,0825.0,5.00,0.00,23.3,21.8,00.0,32.1,25.2,11.0,-001.2,0017.71,0006.78,0005.78
2022-11-11 00:36:00,,0825.1,5.01,0.00,23.3,21.8,00.0,32.1,25.2,11.0,-001.5,0017.75,0006.81,0005.78
2022-11-11 00:37:00,,0825.1,5.00,0.00,23.3,21.8,00.0,32.1,25.2,11.0,-001.4,0017.68,0006.80,0005.78
2022-11-11 00:38:00,,0825.1,5.01,0.00,23.3,21.8,00.0,32.1,25.2,11.0,-000.9,0018.05,0006.85,0005.79
2022-11-11 00:39:00,,0825.1,5.00,0.00,23.4,21.8,00.0,32.1,25.2,11.1,-001.1,0018.60,0006.88,0005.80
2022-11-11 00:40:00,,0825.1,5.00,0.00,23.3,21.8,00.0,32.1,25.2,11.1,-001.0,0019.97,0006.99,0005.81
2022-11-11 00:41:00,,0825.1,5.00,0.00,23.3,21.8,00.0,32.1,25.2,11.0,-000.7,0019.91,0007.02,0005.83
2022-11-11 00:42:00,,0825.1,5.00,0.00,23.3,21.8,00.0,32.1,25.2,11.0,-000.4,0020.73,0007.19,0005.84
2022-11-11 00:43:00,,0825.1,4.99,0.00,23.3,21.8,00.0,32.1,25.2,11.1,-000.9,0022.13,0007.43,0005.88
2022-11-11 00:44:00,,0825.1,5.01,0.00,23.3,21.8,00.0,32.1,25.2,11.0,-000.9,0022.84,0007.55,0005.89
2022-11-11 00:45:00,,0825.1,5.00,0.00,23.3,21.8,00.0,32.1,25.2,11.1,-000.8,0023.63,0007.63,0005.88
2022-11-11 00:46:00,,0825.1,4.99,0.00,23.3,21.8,00.0,32.1,25.2,11.0,-000.7,0024.53,0007.77,0005.88
2022-11-11 00:47:00,,0825.1,5.00,0.00,23.3,21.8,00.0,32.1,25.2,11.0,-001.1,0025.04,0007.78,0005.88
2022-11-11 00:48:00,,0825.1,5.01,0.00,23.3,21.8,00.0,32.1,25.2,11.0,-001.4,0025.32,0007.85,0005.89
2022-11-11 00:49:00,,0825.0,5.01,0.00,23.3,21.8,00.0,32.1,25.2,11.0,-001.7,0025.33,0007.84,0005.89
2022-11-11 00:50:00,,0825.1,5.01,0.00,23.3,21.8,00.0,32.1,25.2,11.0,-001.4,0024.54,0007.82,0005.88
2022-11-11 00:51:00,,0825.1,5.00,0.00,23.3,21.8,00.0,32.1,25.2,10.9,-001.0,0022.61,0007.74,0005.87
2022-11-11 00:52:00,,0825.1,5.00,0.00,23.3,21.8,00.0,32.1,25.2,10.9,-000.9,0022.28,0007.72,0005.87
2022-11-11 00:53:00,,0825.1,5.00,0.00,23.3,21.8,00.0,32.1,25.2,10.9,-000.8,0021.35,0007.52,0005.85
2022-11-11 00:54:00,,0825.1,5.00,0.00,23.3,21.8,00.0,32.1,25.2,10.9,-000.4,0020.04,0007.31,0005.82
2022-11-11 00:55:00,,0825.1,5.00,0.00,23.3,21.8,00.0,32.1,25.2,10.9,-000.1,0018.41,0007.22,0005.81
2022-11-11 00:56:00,,0825.1,5.00,0.00,23.3,21.8,00.0,32.1,25.2,10.9,-000.3,0016.98,0007.09,0005.83
2022-11-11 00:57:00,,0825.2,5.00,0.00,23.3,21.8,00.0,32.1,25.2,10.9,-000.5,0017.13,0006.92,0005.84
2022-11-11 00:58:00,,0825.3,5.00,0.00,23.3,21.8,00.0,32.1,25.2,10.9,0000.1,0016.87,0006.86,0005.85
2022-11-11 00:59:00,,0825.3,4.99,0.00,23.3,21.8,00.0,32.1,25.2,10.9,-000.1,0017.40,0006.83,0005.85
